Weather History for Bolton Field, OH

Change the Weather History Date:

Friday, November 29, 2013

  Actual Average Record
Temperature  
Mean Temperature 26 °F -  
Max Temperature 35 °F 46 °F 69 °F (2006)
Min Temperature 17 °F 32 °F 17 °F (2008)
Degree Days  
Heating Degree Days 39    
Moisture  
Dew Point 19 °F    
Average Humidity 73    
Maximum Humidity 93    
Minimum Humidity 48    
Precipitation  
Precipitation 0.00 in - - ()
Sea Level Pressure  
Sea Level Pressure 30.53 in    
Wind  
Wind Speed 4 mph (South)    
Max Wind Speed 9 mph    
Max Gust Speed -    
Visibility 10 miles    
Events      
Averages and records for this station are not official NWS values.
T = Trace of Precipitation, MM = Missing Value Source: NWS Daily Summary

Daily Weather History Graph

Daily Weather History Graph

Search for Another Location

Airport:

Trip Planner

Search our weather history database for the weather conditions in past years. The results will help you decide how hot, cold, wet, or windy it might be!

Date:

Astronomy

Nov. 29, 2013 Rise Set
Actual Time 7:33 AM EST 5:08 PM EST
Civil Twilight 7:03 AM EST 5:38 PM EST
Nautical Twilight 6:29 AM EST 6:11 PM EST
Astronomical Twilight 5:57 AM EST 6:44 PM EST
Moon 3:37 AM EST (11/29) 2:52 PM EST (11/29)
Length of Visible Light 10h 35m
Length of Day
9h 35m
Waning Crescent, 14% of the Moon is Illuminated
Nov 29
Waning Crescent
Dec 2
New
Dec 9
First Quarter
Dec 17
Full
Dec 25
Last Quarter

Hourly Weather History & Observations

Time (EST) Temp. Windchill Dew Point Humidity Pressure Visibility Wind Dir Wind Speed Gust Speed Precip Events Conditions
12:15 AM 28.4 °F 22.2 °F 21.6 °F 76% 30.42 in 10.0 mi SW 5.8 mph - N/A   Overcast
12:35 AM 28.4 °F 22.2 °F 21.2 °F 74% 30.42 in 10.0 mi SW 5.8 mph - N/A   Overcast
12:55 AM 28.4 °F 19.7 °F 20.8 °F 73% 30.43 in 10.0 mi WSW 9.2 mph - N/A   Overcast
1:15 AM 28.2 °F 22.0 °F 20.3 °F 72% 30.43 in 10.0 mi SW 5.8 mph - N/A   Overcast
1:35 AM 27.9 °F 21.5 °F 20.5 °F 74% 30.43 in 10.0 mi SW 5.8 mph - N/A   Overcast
1:55 AM 27.5 °F 21.1 °F 20.3 °F 74% 30.44 in 10.0 mi SW 5.8 mph - N/A   Overcast
2:15 AM 26.8 °F 21.4 °F 20.3 °F 77% 30.44 in 10.0 mi SW 4.6 mph - N/A   Overcast
2:35 AM 25.9 °F 20.3 °F 19.2 °F 76% 30.45 in 10.0 mi SW 4.6 mph - N/A   Mostly Cloudy
2:55 AM 24.1 °F 19.7 °F 18.3 °F 79% 30.46 in 10.0 mi WSW 3.5 mph - N/A   Scattered Clouds
3:15 AM 23.7 °F 19.3 °F 17.8 °F 78% 30.47 in 10.0 mi WSW 3.5 mph - N/A   Clear
3:35 AM 23.5 °F 19.1 °F 17.4 °F 77% 30.48 in 10.0 mi WSW 3.5 mph - N/A   Clear
3:55 AM 23.7 °F - 17.2 °F 76% 30.48 in 10.0 mi North - - N/A   Clear
4:15 AM 23.4 °F - 16.7 °F 76% 30.48 in 10.0 mi North - - N/A   Clear
4:35 AM 22.8 °F - 16.5 °F 77% 30.49 in 10.0 mi North - - N/A   Clear
4:55 AM 22.1 °F - 16.3 °F 79% 30.50 in 10.0 mi North - - N/A   Clear
5:15 AM 21.7 °F - 15.8 °F 78% 30.50 in 10.0 mi North - - N/A   Clear
5:35 AM 21.4 °F - 15.6 °F 78% 30.51 in 10.0 mi North - - N/A   Clear
5:55 AM 21.6 °F - 15.8 °F 78% 30.51 in 10.0 mi North - - N/A   Clear
6:15 AM 21.2 °F - 15.8 °F 80% 30.52 in 10.0 mi North - - N/A   Clear
7:20 AM 17.6 °F - 14.0 °F 86% 30.55 in 10.0 mi Calm Calm - N/A   Clear
7:51 AM 17.6 °F - 15.8 °F 93% 30.57 in 10.0 mi Calm Calm - N/A   Clear
8:50 AM 21.2 °F - 17.6 °F 86% 30.59 in 10.0 mi Calm Calm - N/A   Clear
9:50 AM 28.4 °F 22.2 °F 17.6 °F 64% 30.61 in 10.0 mi North 5.8 mph - N/A   Clear
10:50 AM 30.2 °F 24.3 °F 17.6 °F 60% 30.61 in 10.0 mi NNE 5.8 mph - N/A   Clear
11:50 AM 33.8 °F - 17.6 °F 52% 30.61 in 10.0 mi North - - N/A   Clear
12:50 PM 33.8 °F - 17.6 °F 52% 30.61 in 10.0 mi Calm Calm - N/A   Clear
1:49 PM 35.6 °F - 17.6 °F 48% 30.59 in 10.0 mi Calm Calm - N/A   Clear
2:55 PM 35.6 °F - 19.4 °F 52% 30.57 in 10.0 mi Calm Calm - N/A   Clear
3:50 PM 33.8 °F - 21.2 °F 60% 30.59 in 10.0 mi Calm Calm - N/A   Clear
4:50 PM 32.0 °F - 21.2 °F 64% 30.59 in 10.0 mi Calm Calm - N/A   Clear
5:58 PM 26.6 °F - 21.2 °F 80% 30.60 in 10.0 mi Calm Calm - N/A   Clear
6:35 PM 27.3 °F - 21.0 °F 77% 30.59 in 10.0 mi Calm Calm - N/A   Clear
6:55 PM 26.6 °F - 19.4 °F 74% 30.59 in 10.0 mi Calm Calm - N/A   Clear
7:15 PM 25.9 °F - 20.5 °F 80% 30.59 in 10.0 mi Calm Calm - N/A   Clear
7:35 PM 27.9 °F - 21.0 °F 75% 30.58 in 10.0 mi Calm Calm - N/A   Clear
7:55 PM 29.3 °F 25.6 °F 20.7 °F 70% 30.58 in 10.0 mi ENE 3.5 mph - N/A   Clear
8:15 PM 28.4 °F - 20.3 °F 72% 30.58 in 10.0 mi Calm Calm - N/A   Clear
8:35 PM 28.4 °F - 20.1 °F 71% 30.58 in 10.0 mi Calm Calm - N/A   Clear
8:55 PM 27.9 °F - 19.9 °F 72% 30.58 in 10.0 mi Calm Calm - N/A   Clear
9:15 PM 27.9 °F - 19.9 °F 72% 30.57 in 10.0 mi Calm Calm - N/A   Clear
9:35 PM 25.2 °F 20.9 °F 18.5 °F 76% 30.57 in 10.0 mi East 3.5 mph - N/A   Clear
9:55 PM 27.1 °F 23.2 °F 19.4 °F 73% 30.57 in 10.0 mi East 3.5 mph - N/A   Clear
10:15 PM 26.4 °F 20.9 °F 19.6 °F 75% 30.57 in 10.0 mi East 4.6 mph - N/A   Clear
10:35 PM 26.1 °F 20.5 °F 19.8 °F 77% 30.56 in 10.0 mi East 4.6 mph - N/A   Clear
10:55 PM 26.4 °F 20.9 °F 20.1 °F 77% 30.56 in 10.0 mi East 4.6 mph - N/A   Clear
11:15 PM 25.7 °F 20.1 °F 19.8 °F 78% 30.55 in 10.0 mi East 4.6 mph - N/A   Clear
11:35 PM 25.7 °F 19.0 °F 20.1 °F 79% 30.55 in 10.0 mi East 5.8 mph - N/A   Clear
11:55 PM 26.4 °F 20.9 °F 20.3 °F 78% 30.55 in 10.0 mi East 4.6 mph - N/A   Clear